Weather Roundup
Issued by NWS Chicago, IL

Home | Current Version | Previous Version | Graphics & Text | Print | Product List | Glossary On
Versions: 1 2 3 4 5 6 7 8 9 10 11 12 13 14 15 16 17 18 19 20 21 22 23 24 25 26 27 28 29 30 31 32 33 34 35 36 37 38 39 40 41 42 43 44 45 46 47 48 49 50
000
NZUS59 KLOT 271009
HRRLOT

CHICAGO AREA WEATHER ROUNDUP
NATIONAL WEATHER SERVICE CHICAGO/ROMEOVILLE IL
500 AM CDT TUE JUN 27 2017

NOTE: "FAIR" INDICATES FEW OR NO CLOUDS BELOW 12,000 FEET WITH NO
SIGNIFICANT WEATHER AND/OR OBSTRUCTIONS TO VISIBILITY.

* THESE STATIONS ARE NOT UNDER NWS QUALITY CONTROL. THEY ALSO MAY NOT
  REPORT WEATHER SUCH AS PRECIPITATION OR FOG.

ILZ005-006-012>014-019>023-271100-
NORTHEAST ILLINOIS

CITY           SKY/WX    TMP DP  RH WIND       PRES   REMARKS
OHARE          PTCLDY    53  45  74 W3        30.10R
MIDWAY         CLEAR     54  46  74 CALM      30.11R
AURORA         PTCLDY    47  44  90 W3        30.13R
LANSING*       CLEAR     47  43  85 CALM      30.12R
JOLIET*        CLEAR     47  47  98 CALM      30.12R
WAUKEGAN       CLEAR     51  48  89 CALM      30.09R
DUPAGE AIRPORT CLEAR     51  47  86 CALM      30.10S
WHEELING       CLEAR     53  47  79 CALM      30.11S
MORRIS*        CLEAR     48  43  84 CALM      30.12R
LEWIS AIRPORT* CLEAR     51  44  78 CALM      30.12R
NORTHERLY ISL    N/A     58  45  62 W5          N/A
$$

WIZ051-052-058>065-066-070>072-271100-
SOUTHEAST WISCONSIN

CITY           SKY/WX    TMP DP  RH WIND       PRES   REMARKS
MILWAUKEE      CLEAR     54  47  77 W7        30.08S
KENOSHA*       CLEAR     48  45  89 SW3       30.09S
RACINE*        CLEAR     52  46  80 W5        30.10S
WAUKESHA       CLEAR     45  43  93 CALM      30.10S
WEST BEND      CLEAR     50  46  87 W3        30.08R
$$

INZ001>003-010>013-019-020-271100-
NORTHWEST INDIANA

CITY           SKY/WX    TMP DP  RH WIND       PRES   REMARKS
GARY*          CLEAR     48  45  87 CALM      30.12R
MICHIGAN CITY* NOT AVBL
RENSSELAER*    NOT AVBL
VALPARAISO     CLEAR     52  46  80 SW6       30.12R
$$

LMZ740>746-271100-
SOUTHERN LAKE MICHIGAN

STATION/POSITION TIME  SKY/WX   TEMP WIND        PRES    VSBY
                                AIR  DIR/SP/G
                 (UTC)          (F)  (DEG/KT/KT) (MB)    (MI)
HARRISON CRIB    0940            59  280/  8/  9   N/A
BURNHAM HARBOR   1000            58                N/A
CALUMET HARBOR   0942            56  230/  2/  3 1019.0R
BURNS HARBOR     0940            61  330/  7/ 10 1019.6S
MICHIGAN CITY    0940            60  320/ 12/ 14   N/A
$$

ABBREVIATIONS USED IN REMARKS
   TC - TEMPERATURE IN CELSIUS
  WCI - WIND CHILL INDEX
   HX - HEAT INDEX
  VSB - VISIBILITY
$$




USA.gov is the U.S. government's official web portal to all federal, state and local government web resources and services.